Location: Kuppenheim
(48.8299°N, 8.2568°E)
Time: 07:55:49
(UTC+00:00)

N. Korean satellite - Pass Details

Date: 05 December 2022
Orbit: 407 x 442 km, 97.3° (Epoch: 04 February)

Event Time Altitude Azimuth Distance (km) Brightness Sun altitude
Rises 04:24:40 0° 19° (NNE) 2,519 10.4 -25.2°
Reaches altitude 10° 04:26:50 10° 28° (NNE) 1,632 9.5 -24.8°
Maximum altitude 04:30:08 38° 98° (E) 723 7.9 -24.3°
Drops below altitude 10° 04:33:22 10° 168° (SSE) 1,595 9.4 -23.8°
Sets 04:35:28 0° 176° (S) 2,453 10.3 -23.4°
